Frederick, OK

4:59 PM CDT on March 26, 2017 (GMT -0500)
Frederick Municipal

Weather History for KFDR - August, 2013

Change the Weather History Date:

Saturday, August 10, 2013

  Actual Average (KLTS) Record (KLTS)
Temperature  
Mean Temperature 80 °F -  
Max Temperature 90 °F 93 °F 107 °F (1998)
Min Temperature 70 °F 70 °F 66 °F (2007)
Cooling Degree Days 14    
Growing Degree Days 30 (Base 50)    
Moisture  
Dew Point 65 °F    
Average Humidity 63    
Maximum Humidity 90    
Minimum Humidity 39    
Precipitation  
Precipitation 0.00 in - - ()
Sea Level Pressure  
Sea Level Pressure 30.04 in    
Wind  
Wind Speed 10 mph (NNE)    
Max Wind Speed 17 mph    
Max Gust Speed 17 mph    
Visibility 10 miles    
Events      
Averages and records for this station are not official NWS values.
T = Trace of Precipitation, MM = Missing Value Source: NWS Daily Summary

Daily Weather History Graph

Daily Weather History Graph

Search for Another Location

Airport or City:

Trip Planner

Search our weather history database for the weather conditions in past years. The results will help you decide how hot, cold, wet, or windy it might be!

Date:

Astronomy

Aug. 10, 2013 Rise Set
Actual Time 6:53 AM CDT 8:28 PM CDT
Civil Twilight 6:26 AM CDT 8:55 PM CDT
Nautical Twilight 5:54 AM CDT 9:27 PM CDT
Astronomical Twilight 5:20 AM CDT 10:01 PM CDT
Moon 10:28 AM CDT (8/10) 10:24 PM CDT (8/10)
Length of Visible Light 14h 28m
Length of Day
13h 34m
Waxing Crescent, 14% of the Moon is Illuminated
Aug 10
Waxing Crescent
Aug 14
First Quarter
Aug 20
Full
Aug 28
Last Quarter
Sep 5
New

Hourly Weather History & Observations

Time (CDT) Temp. Heat Index Dew Point Humidity Pressure Visibility Wind Dir Wind Speed Gust Speed Precip Events Conditions
12:53 AM 75.9 °F - 69.1 °F 79% 30.01 in 10.0 mi North 9.2 mph - N/A   Mostly Cloudy
1:53 AM 73.9 °F - 69.1 °F 85% 30.02 in 10.0 mi NNE 5.8 mph - N/A   Clear
2:53 AM 73.9 °F - 69.1 °F 85% 30.02 in 10.0 mi North 10.4 mph - N/A   Clear
3:53 AM 73.0 °F - 68.0 °F 84% 30.02 in 10.0 mi NNE 9.2 mph - N/A   Clear
4:53 AM 71.1 °F - 66.9 °F 87% 30.03 in 10.0 mi NNE 10.4 mph - N/A   Clear
5:53 AM 70.0 °F - 66.9 °F 90% 30.04 in 10.0 mi North 11.5 mph - N/A   Clear
6:53 AM 70.0 °F - 66.0 °F 87% 30.05 in 10.0 mi North 9.2 mph - N/A   Partly Cloudy
7:53 AM 71.1 °F - 66.0 °F 84% 30.05 in 10.0 mi North 11.5 mph - N/A   Clear
8:53 AM 75.0 °F - 64.9 °F 71% 30.08 in 10.0 mi North 17.3 mph - N/A   Clear
9:40 AM 77.0 °F - 64.4 °F 65% 30.14 in 10.0 mi North 12.7 mph - N/A   Partly Cloudy
9:53 AM 78.1 °F - 64.0 °F 62% 30.09 in 10.0 mi North 15.0 mph - N/A   Partly Cloudy
10:53 AM 82.0 °F 83.4 °F 64.0 °F 54% 30.10 in 10.0 mi North 11.5 mph - N/A   Clear
11:53 AM 84.0 °F 85.4 °F 64.0 °F 51% 30.09 in 10.0 mi NNE 11.5 mph - N/A   Clear
12:05 PM 84.2 °F 85.6 °F 64.4 °F 51% 30.14 in 10.0 mi North 13.8 mph - N/A   Partly Cloudy
12:53 PM 86.0 °F 87.3 °F 64.0 °F 48% 30.08 in 10.0 mi North 11.5 mph - N/A   Clear
1:53 PM 88.0 °F 89.3 °F 64.0 °F 45% 30.07 in 10.0 mi NNW 8.1 mph - N/A   Mostly Cloudy
2:53 PM 87.1 °F 88.3 °F 64.0 °F 46% 30.05 in 10.0 mi NE 11.5 mph - N/A   Overcast
3:53 PM 87.1 °F 87.8 °F 63.0 °F 44% 30.03 in 10.0 mi North 5.8 mph - N/A   Mostly Cloudy
4:53 PM 89.1 °F 90.0 °F 63.0 °F 42% 30.01 in 10.0 mi NNE 10.4 mph 17.3 mph N/A   Scattered Clouds
5:53 PM 89.1 °F 89.3 °F 62.1 °F 40% 29.99 in 10.0 mi NE 10.4 mph - N/A   Clear
6:53 PM 89.1 °F 89.0 °F 61.0 °F 39% 29.97 in 10.0 mi NNE 6.9 mph - N/A   Clear
7:53 PM 87.1 °F 87.5 °F 62.1 °F 43% 29.96 in 10.0 mi NE 9.2 mph - N/A   Clear
8:53 PM 82.0 °F 83.1 °F 63.0 °F 52% 29.98 in 10.0 mi ENE 6.9 mph - N/A   Clear
9:53 PM 79.0 °F - 63.0 °F 58% 30.01 in 10.0 mi ENE 8.1 mph - N/A   Clear
10:53 PM 77.0 °F - 64.0 °F 64% 30.04 in 10.0 mi ENE 8.1 mph - N/A   Clear
11:53 PM 75.0 °F - 64.9 °F 71% 30.04 in 10.0 mi ENE 8.1 mph - N/A   Clear